sat.trackr.live / text

‹ back to catalog

RCM-3

NORAD 44323 · 2019-033B

PAYLOAD ACTIVE UNKNOWN

§ Identity

Operator
Country
CA
Launch date
2019-06-12
Launch site
AFWTR
Launch vehicle
Mass (kg)
RCS (m²)

External: N2YO · Heavens-Above · Gunter

§ Orbital elements

Epoch: 2026-09-20T05:14:57.283584Z

Period
96.48 min
Inclination
97.7600°
Eccentricity
0.0001524
Mean motion
14.92587954 rev/d
Perigee alt
588.8 km
Apogee alt
590.9 km
Semi-major
6,968.0 km
B*
5.3565e-5
RAAN
269.4160°
Arg perigee
90.8611°
Mean anomaly
269.2782°
Rev number
39,627

§ Raw data

RCM-31 44323U 19033B   26263.21871856  .00000495  00000+0  53565-4 0  99942 44323  97.7600 269.4160 0001524  90.8611 269.2782 14.92587954396279

JSON: /api/v1/satellites/44323 · /tle

For live sub-satellite position, see the globe view (requires WebGL).

§ Visibility from observer

Set your observer location to see the next 7 days of passes ≥ 10°. The values pass through the URL so the page stays shareable.

No JS? Fill the form by hand. The geolocation button needs JavaScript.